Regional Weather Roundup
Issued by NWS Cleveland, OH

Home | Current Version | Previous Version | Graphics & Text | Print | Product List | Glossary On
Versions: 1 2 3 4 5 6 7 8 9 10 11 12 13 14 15 16 17 18 19 20 21 22 23 24 25 26 27 28 29 30 31 32 33 34 35 36 37 38 39 40 41 42 43 44 45 46 47 48 49 50
000
ASUS41 KCLE 242102
RWRCLE
OHIO REGIONAL WEATHER ROUNDUP
NATIONAL WEATHER SERVICE CLEVELAND, OH
400 PM EST FRI FEB 24 2017

NOTE: "FAIR" INDICATES FEW OR NO CLOUDS BELOW 12,000 FEET WITH NO
SIGNIFICANT WEATHER AND/OR OBSTRUCTIONS TO VISIBILITY.

OHZ001>008-015>018-024>027-034-035-043-044-242200-
   NORTHWEST OHIO

CITY           SKY/WX    TMP DP  RH WIND       PRES   REMARKS
DEFIANCE       LGT RAIN  67  52  58 S21G35    29.43F
FINDLAY        PTSUNNY   73  52  47 S24G33    29.52F
TOLEDO EXPRESS CLOUDY    71  54  54 S8G20     29.48F
TOLEDO EXEC    CLOUDY    73  54  51 S15G26    29.51F
LIMA           CLOUDY    70  55  59 S8        29.55S
$$

OHZ009>014-019>023-028>033-038-089-242200-
   NORTHEAST OHIO

CITY           SKY/WX    TMP DP  RH WIND       PRES   REMARKS
CLE-HOPKINS    PTSUNNY   75  49  39 SW15G25   29.58S
CLE-LAKEFRONT  CLOUDY    77  51  40 S20G28    29.55S
CUY CO. ARPT   NOT AVBL
LORAIN-ELYRIA  MOSUNNY   73  51  46 SW18G30   29.57S
ASHTABULA      MOSUNNY   74  51  44 S10G24    29.59F
AKRON-CANTON   PTSUNNY   75  50  41 S21G30    29.59F
WOOSTER        MOSUNNY   72  51  47 SW14G23   29.59F
MANSFIELD      MOSUNNY   72  52  49 S20G30    29.60R
YOUNGSTOWN     CLOUDY    74  49  41 S21G29    29.60F
$$

OHZ042-051>053-060>062-070>072-077>081-242200-
  SOUTHWEST OHIO

CITY           SKY/WX    TMP DP  RH WIND       PRES   REMARKS
CINC-COVINGTON PTSUNNY   77  52  41 SW13G29   29.56S
CINC-LUNKEN    MOSUNNY   78  54  43 S22G31    29.55F
HAMILTON       PTSUNNY   77  52  41 SW13G28   29.56R
DAYTON         CLOUDY    73  50  44 SW20G30   29.57R
WRIGHT-PAT AFB PTSUNNY   75  51  41 S17G26    29.56R
DAYTON GENERAL PTSUNNY   75  51  43 SW15G31   29.56R
WILMINGTON     MOSUNNY   73  54  51 S21G30    29.56F
$$

OHZ036-037-039>041-045>050-054>059-063>069-073>076-082>088-242200-
  CENTRAL AND SOUTHEAST OHIO

CITY           SKY/WX    TMP DP  RH WIND       PRES   REMARKS
COLUMBUS       PTSUNNY   78  51  38 S16G30    29.57F
OSU AIRPORT    PTSUNNY   75  53  46 S17G29    29.57F
BOLTON FIELD   SUNNY     75  55  50 S18G25    29.59S
RICKENBACK AFB MOSUNNY   76  51  41 S16       29.57F
NEWARK         MOSUNNY   76  50  40 S17G24    29.57F
MARION         PTSUNNY   73  52  47 SW18G28   29.58S
LANCASTER      MOSUNNY   78  51  38 S17       29.58F
ZANESVILLE     MOSUNNY   76  50  40 S17       29.61F
NEW PHILLY     NOT AVBL
$$



USA.gov is the U.S. government's official web portal to all federal, state and local government web resources and services.